GSAT0210 (GALILEO 13) (41550 NORAD) Tracking and Keplerian Element Data

This shows tracking and keplerian element data for the satellite.

Feedback or suggestion? Click here.




ElementValue
Catalog41550
NameGSAT0210 (GALILEO 13)
Epoch Orbit1334
Epoch Day198.2286024
Epoch Year2018
RAAN301.1336
Inclination56.8523
Eccentricity0.0003256
Argument of Perigee219.8314
Mean Anonmoly140.1811
Mean Motion1.70474856
Decay Rate-5.9E-07
L11 41550U 16030B 18198.22860240 -.00000059 00000-0 00000+0 0 9990
L22 41550 56.8523 301.1336 0003256 219.8314 140.1811 1.70474856 13346

Live tracking and technical data element details for GSAT0210 (GALILEO 13) (NORAD 41550). GSAT0210 (GALILEO 13) can be tracked NOW for your location showing map with azimuth and elevation plus other details from your city location.

Track the satellite on the map from your city or location and see movement details for azimuth, elevation, latitude, longitude, range, height, and movement on the map or in text.







IsCatalogInMostPopularTable: catalog: 41550, numindb: 63
Update: records affected: 1



GetName: 41550 GSAT0210 (GALILEO 13)

Hit Count: updated at: Wed, 18 Jul 2018 20:29:50 GMT